Terminal Aerodrome Forecast
Issued by NWS

Home | Current Version | Previous Version | Graphics & Text | Print | Product List | Glossary On
Versions: 1 2 3 4 5 6 7 8 9 10 11 12 13 14 15 16 17 18 19 20 21
000
FTUS43 KUNR 241700
TAFGCC
TAF
KGCC 241720Z 2418/2518 32020G30KT P6SM BKN015 OVC020
      TEMPO 2418/2422 2SM -SHSN OVC015
     FM250000 30012KT P6SM BKN050 OVC100
     FM250400 22009KT P6SM SCT070 OVC100
      AMD NOT SKED=

USA.gov is the U.S. government's official web portal to all federal, state and local government web resources and services.